When you browse on this site, cookies collect data to enhance your experience and personalize the content and advertising you see.
Visit our Privacy Policy to learn more. By continuing to use the site, you agree to this use of cookies and data.

Météo par heure à Wien

Ce jour, 7 Juillet, Mardi

Heure Température Précipitation Vent Pression Humidité
00:00 +14°C° 1.6 mm 3 m/s 744 mmHg 83%
01:00 +15°C° 1.6 mm 2 m/s 744 mmHg 83%
02:00 +14°C° 0.1 mm 3 m/s 744 mmHg 82%
03:00 +13°C° 0.1 mm 3 m/s 744 mmHg 81%
04:00 +12°C° 0.1 mm 4 m/s 744 mmHg 81%
05:00 +13°C° 0 mm 4 m/s 745 mmHg 78%
06:00 +14°C° 0 mm 5 m/s 745 mmHg 75%
07:00 +14°C° 0 mm 5 m/s 745 mmHg 73%
08:00 +16°C° 0 mm 5 m/s 745 mmHg 67%
09:00 +17°C° 0 mm 5 m/s 745 mmHg 61%
10:00 +19°C° 0 mm 5 m/s 745 mmHg 55%
11:00 +20°C° 0.1 mm 5 m/s 745 mmHg 53%
12:00 +21°C° 0.1 mm 4 m/s 745 mmHg 50%
13:00 +21°C° 0.1 mm 4 m/s 745 mmHg 48%
14:00 +22°C° 0 mm 4 m/s 744 mmHg 48%
15:00 +22°C° 0 mm 3 m/s 744 mmHg 48%
16:00 +22°C° 0 mm 3 m/s 744 mmHg 47%
17:00 +21°C° 0 mm 3 m/s 744 mmHg 52%
18:00 +20°C° 0 mm 2 m/s 744 mmHg 57%
19:00 +20°C° 0 mm 1 m/s 744 mmHg 62%
20:00 +19°C° 0 mm 1 m/s 744 mmHg 64%
21:00 +18°C° 0 mm 1 m/s 745 mmHg 67%
22:00 +16°C° 0 mm 1 m/s 745 mmHg 69%
23:00 +15°C° 0 mm 1 m/s 745 mmHg 70%

Demain, 8 Juillet, Mercredi

Heure Température Précipitation Vent Pression Humidité
00:00 +15°C° 0 mm 1 m/s 745 mmHg 71%
01:00 +14°C° 0 mm 1 m/s 745 mmHg 72%
02:00 +14°C° 0 mm 1 m/s 745 mmHg 73%
03:00 +14°C° 0 mm 1 m/s 745 mmHg 73%
04:00 +14°C° 0 mm 1 m/s 745 mmHg 74%
05:00 +15°C° 0 mm 1 m/s 745 mmHg 70%
06:00 +18°C° 0 mm 1 m/s 745 mmHg 65%
07:00 +19°C° 0 mm 1 m/s 745 mmHg 61%
08:00 +21°C° 0 mm 1 m/s 745 mmHg 56%
09:00 +23°C° 0 mm 1 m/s 745 mmHg 51%
10:00 +24°C° 0 mm 2 m/s 745 mmHg 46%
11:00 +25°C° 0 mm 2 m/s 744 mmHg 44%
12:00 +26°C° 0 mm 2 m/s 744 mmHg 43%
13:00 +27°C° 0 mm 3 m/s 743 mmHg 41%
14:00 +27°C° 0 mm 3 m/s 743 mmHg 41%
15:00 +27°C° 0 mm 3 m/s 743 mmHg 42%
16:00 +28°C° 0 mm 3 m/s 743 mmHg 43%
17:00 +26°C° 0 mm 3 m/s 743 mmHg 48%
18:00 +25°C° 0 mm 3 m/s 743 mmHg 54%
19:00 +23°C° 0 mm 4 m/s 743 mmHg 59%
20:00 +22°C° 0 mm 3 m/s 744 mmHg 62%
21:00 +21°C° 0 mm 3 m/s 744 mmHg 65%
22:00 +20°C° 0 mm 3 m/s 745 mmHg 68%
23:00 +19°C° 0 mm 2 m/s 745 mmHg 71%

Après-demain, 9 Juillet, Jeudi

Heure Température Précipitation Vent Pression Humidité
00:00 +19°C° 0 mm 2 m/s 745 mmHg 74%
01:00 +19°C° 0 mm 1 m/s 745 mmHg 77%
02:00 +18°C° 0 mm 1 m/s 745 mmHg 79%
03:00 +18°C° 0 mm 1 m/s 745 mmHg 81%
04:00 +16°C° 0 mm 1 m/s 745 mmHg 83%
05:00 +18°C° 0 mm 1 m/s 746 mmHg 80%
06:00 +19°C° 0 mm 1 m/s 746 mmHg 76%
07:00 +21°C° 0 mm 1 m/s 746 mmHg 73%
08:00 +22°C° 0 mm 1 m/s 746 mmHg 68%
09:00 +23°C° 0 mm 1 m/s 747 mmHg 64%
10:00 +25°C° 0 mm 1 m/s 747 mmHg 59%
11:00 +25°C° 0.1 mm 1 m/s 746 mmHg 59%
12:00 +26°C° 0.1 mm 2 m/s 746 mmHg 58%
13:00 +27°C° 0.1 mm 2 m/s 746 mmHg 57%
14:00 +27°C° 0.1 mm 2 m/s 745 mmHg 56%
15:00 +27°C° 0.1 mm 3 m/s 745 mmHg 55%
16:00 +28°C° 0.1 mm 3 m/s 745 mmHg 55%
17:00 +27°C° 0.1 mm 3 m/s 745 mmHg 58%
18:00 +26°C° 0.1 mm 3 m/s 744 mmHg 62%
19:00 +25°C° 0.1 mm 2 m/s 744 mmHg 66%
20:00 +24°C° 0 mm 2 m/s 744 mmHg 69%
21:00 +23°C° 0 mm 2 m/s 744 mmHg 72%
22:00 +20°C° 0 mm 2 m/s 744 mmHg 76%
23:00 +20°C° 0 mm 2 m/s 744 mmHg 76%

10 Juillet, Vendredi

Heure Température Précipitation Vent Pression Humidité
00:00 +20°C° 0 mm 2 m/s 744 mmHg 76%
01:00 +20°C° 0 mm 1 m/s 744 mmHg 76%
02:00 +20°C° 0 mm 1 m/s 743 mmHg 77%
03:00 +19°C° 0 mm 1 m/s 743 mmHg 77%
04:00 +19°C° 0 mm 1 m/s 743 mmHg 78%
05:00 +19°C° 0 mm 2 m/s 743 mmHg 75%
06:00 +21°C° 0 mm 2 m/s 743 mmHg 71%
07:00 +23°C° 0 mm 2 m/s 743 mmHg 68%
08:00 +25°C° 0 mm 3 m/s 742 mmHg 62%
09:00 +27°C° 0 mm 4 m/s 742 mmHg 56%
10:00 +29°C° 0 mm 5 m/s 742 mmHg 49%
11:00 +30°C° 0 mm 5 m/s 742 mmHg 47%
12:00 +32°C° 0 mm 5 m/s 741 mmHg 45%
13:00 +33°C° 0 mm 5 m/s 741 mmHg 43%
14:00 +33°C° 0 mm 5 m/s 740 mmHg 43%
15:00 +33°C° 0 mm 5 m/s 740 mmHg 43%
16:00 +33°C° 0 mm 5 m/s 740 mmHg 43%
17:00 +32°C° 0 mm 4 m/s 740 mmHg 49%
18:00 +29°C° 0 mm 4 m/s 740 mmHg 54%
19:00 +28°C° 0 mm 4 m/s 740 mmHg 59%
20:00 +25°C° 1.3 mm 4 m/s 741 mmHg 67%
21:00 +22°C° 1.3 mm 4 m/s 742 mmHg 76%
22:00 +20°C° 1.3 mm 5 m/s 743 mmHg 84%
23:00 +19°C° 0.2 mm 5 m/s 743 mmHg 84%

11 Juillet, Samedi

Heure Température Précipitation Vent Pression Humidité
00:00 +19°C° 0.2 mm 5 m/s 744 mmHg 84%
01:00 +17°C° 0.2 mm 5 m/s 744 mmHg 84%
02:00 +16°C° 0 mm 5 m/s 744 mmHg 80%
03:00 +17°C° 0 mm 4 m/s 744 mmHg 76%
04:00 +16°C° 0 mm 3 m/s 744 mmHg 73%
05:00 +16°C° 0.2 mm 3 m/s 745 mmHg 75%
06:00 +14°C° 0.2 mm 3 m/s 745 mmHg 76%
07:00 +14°C° 0.2 mm 4 m/s 746 mmHg 78%
08:00 +14°C° 0.3 mm 3 m/s 746 mmHg 79%
09:00 +14°C° 0.3 mm 3 m/s 746 mmHg 79%
10:00 +15°C° 0.3 mm 2 m/s 747 mmHg 80%
11:00 +16°C° 0.6 mm 2 m/s 747 mmHg 76%
12:00 +18°C° 0.6 mm 1 m/s 747 mmHg 73%
13:00 +19°C° 0.6 mm 1 m/s 747 mmHg 70%
14:00 +20°C° 0 mm 1 m/s 747 mmHg 64%
15:00 +21°C° 0 mm 1 m/s 747 mmHg 58%
16:00 +21°C° 0 mm 2 m/s 747 mmHg 53%
17:00 +21°C° 0 mm 2 m/s 747 mmHg 57%
18:00 +21°C° 0 mm 1 m/s 747 mmHg 62%
19:00 +20°C° 0 mm 1 m/s 747 mmHg 67%
20:00 +19°C° 0 mm 1 m/s 747 mmHg 68%
21:00 +18°C° 0 mm 1 m/s 747 mmHg 70%
22:00 +16°C° 0 mm 1 m/s 748 mmHg 72%
23:00 +16°C° 0 mm 1 m/s 748 mmHg 72%

12 Juillet, Dimanche

Heure Température Précipitation Vent Pression Humidité
00:00 +15°C° 0 mm 1 m/s 748 mmHg 72%
01:00 +15°C° 0 mm 1 m/s 748 mmHg 73%
02:00 +14°C° 0 mm 1 m/s 748 mmHg 75%
03:00 +14°C° 0 mm 1 m/s 748 mmHg 76%
04:00 +13°C° 0 mm 1 m/s 748 mmHg 78%
05:00 +15°C° 0 mm 1 m/s 748 mmHg 74%
06:00 +16°C° 0 mm 1 m/s 749 mmHg 71%
07:00 +17°C° 0 mm 2 m/s 749 mmHg 67%
08:00 +19°C° 0 mm 2 m/s 749 mmHg 61%
09:00 +20°C° 0 mm 2 m/s 749 mmHg 55%
10:00 +23°C° 0 mm 2 m/s 749 mmHg 48%
11:00 +24°C° 0 mm 2 m/s 749 mmHg 46%
12:00 +24°C° 0 mm 3 m/s 749 mmHg 43%
13:00 +25°C° 0 mm 3 m/s 749 mmHg 40%
14:00 +25°C° 0 mm 3 m/s 749 mmHg 41%
15:00 +25°C° 0 mm 3 m/s 749 mmHg 42%
16:00 +25°C° 0 mm 3 m/s 748 mmHg 44%
17:00 +22°C° 0 mm 3 m/s 748 mmHg 51%
18:00 +21°C° 0 mm 2 m/s 748 mmHg 57%
19:00 +20°C° 0 mm 2 m/s 748 mmHg 64%
20:00 +19°C° 0 mm 2 m/s 749 mmHg 66%
21:00 +17°C° 0 mm 2 m/s 749 mmHg 69%
22:00 +16°C° 0 mm 2 m/s 749 mmHg 71%
23:00 +15°C° 0 mm 2 m/s 749 mmHg 72%
Voir plus